Year,Month,Day,Hour,Minute,Value (Times are PST for temperature in C)
2013,05,04,00,00,12.80
2013,05,04,00,01,12.70
2013,05,04,00,02,12.70
2013,05,04,00,03,12.70
2013,05,04,00,04,12.70
2013,05,04,00,05,12.60
2013,05,04,00,06,12.60
2013,05,04,00,07,12.60
2013,05,04,00,08,12.70
2013,05,04,00,09,12.70
2013,05,04,00,10,12.70
2013,05,04,00,11,12.70
2013,05,04,00,12,12.70
2013,05,04,00,13,12.70
2013,05,04,00,14,12.70
2013,05,04,00,15,12.70
2013,05,04,00,16,12.70
2013,05,04,00,17,12.70
2013,05,04,00,18,12.70
2013,05,04,00,19,12.70
2013,05,04,00,20,12.70
2013,05,04,00,21,12.70
2013,05,04,00,22,12.70
2013,05,04,00,23,12.70
2013,05,04,00,24,12.80
2013,05,04,00,25,12.80
2013,05,04,00,26,12.80
2013,05,04,00,27,12.80
2013,05,04,00,28,12.90
2013,05,04,00,29,12.90
2013,05,04,00,30,12.90
2013,05,04,00,31,12.90
2013,05,04,00,32,12.90
2013,05,04,00,33,12.90
2013,05,04,00,34,13.00
2013,05,04,00,35,13.00
2013,05,04,00,36,13.10
2013,05,04,00,37,13.10
2013,05,04,00,38,13.10
2013,05,04,00,39,13.20
2013,05,04,00,40,13.20
2013,05,04,00,41,13.20
2013,05,04,00,42,13.20
2013,05,04,00,43,13.20
2013,05,04,00,44,13.20
2013,05,04,00,45,13.30
2013,05,04,00,46,13.30
2013,05,04,00,47,13.20
2013,05,04,00,48,13.20
2013,05,04,00,49,13.20
2013,05,04,00,50,13.20
2013,05,04,00,51,13.20
2013,05,04,00,52,13.20
2013,05,04,00,53,13.20
2013,05,04,00,54,13.20
2013,05,04,00,55,13.20
2013,05,04,00,56,13.20
2013,05,04,00,57,13.20
2013,05,04,00,58,13.10
2013,05,04,00,59,13.00
2013,05,04,01,00,13.00
2013,05,04,01,01,12.90
2013,05,04,01,02,12.80
2013,05,04,01,03,12.80
2013,05,04,01,04,12.90
2013,05,04,01,05,12.90
2013,05,04,01,06,12.80
2013,05,04,01,07,12.80
2013,05,04,01,08,12.80
2013,05,04,01,09,12.80
2013,05,04,01,10,12.80
2013,05,04,01,11,12.80
2013,05,04,01,12,12.80
2013,05,04,01,13,12.70
2013,05,04,01,14,12.70
2013,05,04,01,15,12.70
2013,05,04,01,16,12.70
2013,05,04,01,17,12.70
2013,05,04,01,18,12.60
2013,05,04,01,19,12.60
2013,05,04,01,20,12.60
2013,05,04,01,21,12.60
2013,05,04,01,22,12.50
2013,05,04,01,23,12.50
2013,05,04,01,24,12.40
2013,05,04,01,25,12.40
2013,05,04,01,26,12.40
2013,05,04,01,27,12.30
2013,05,04,01,28,12.30
2013,05,04,01,29,12.30
2013,05,04,01,30,12.30
2013,05,04,01,31,12.30
2013,05,04,01,32,12.30
2013,05,04,01,33,12.30
2013,05,04,01,34,12.30
2013,05,04,01,35,12.30
2013,05,04,01,36,12.30
2013,05,04,01,37,12.30
2013,05,04,01,38,12.30
2013,05,04,01,39,12.30
2013,05,04,01,40,12.30
2013,05,04,01,41,12.30
2013,05,04,01,42,12.30
2013,05,04,01,43,12.30
2013,05,04,01,44,12.30
2013,05,04,01,45,12.30
2013,05,04,01,46,12.30
2013,05,04,01,47,12.30
2013,05,04,01,48,12.30
2013,05,04,01,49,12.30
2013,05,04,01,50,12.30
2013,05,04,01,51,12.30
2013,05,04,01,52,12.30
2013,05,04,01,53,12.30
2013,05,04,01,54,12.30
2013,05,04,01,55,12.30
2013,05,04,01,56,12.30
2013,05,04,01,57,12.30
2013,05,04,01,58,12.30
2013,05,04,01,59,12.30
2013,05,04,02,00,12.30
2013,05,04,02,01,12.20
2013,05,04,02,02,12.20
2013,05,04,02,03,12.20
2013,05,04,02,04,12.10
2013,05,04,02,05,12.10
2013,05,04,02,06,12.00
2013,05,04,02,07,12.00
2013,05,04,02,08,11.90
2013,05,04,02,09,11.90
2013,05,04,02,10,11.80
2013,05,04,02,11,11.80
2013,05,04,02,12,11.80
2013,05,04,02,13,11.80
2013,05,04,02,14,11.80
2013,05,04,02,15,11.80
2013,05,04,02,16,11.80
2013,05,04,02,17,11.80
2013,05,04,02,18,11.80
2013,05,04,02,19,11.80
2013,05,04,02,20,11.80
2013,05,04,02,21,11.80
2013,05,04,02,22,11.80
2013,05,04,02,23,11.80
2013,05,04,02,24,11.80
2013,05,04,02,25,11.80
2013,05,04,02,26,11.80
2013,05,04,02,27,11.80
2013,05,04,02,28,11.80
2013,05,04,02,29,11.80
2013,05,04,02,30,11.70
2013,05,04,02,31,11.70
2013,05,04,02,32,11.70
2013,05,04,02,33,11.60
2013,05,04,02,34,11.60
2013,05,04,02,35,11.60
2013,05,04,02,36,11.60
2013,05,04,02,37,11.60
2013,05,04,02,38,11.50
2013,05,04,02,39,11.40
2013,05,04,02,40,11.40
2013,05,04,02,41,11.40
2013,05,04,02,42,11.40
2013,05,04,02,43,11.40
2013,05,04,02,44,11.40
2013,05,04,02,45,11.40
2013,05,04,02,46,11.30
2013,05,04,02,47,11.30
2013,05,04,02,48,11.30
2013,05,04,02,49,11.30
2013,05,04,02,50,11.30
2013,05,04,02,51,11.30
2013,05,04,02,52,11.30
2013,05,04,02,53,11.30
2013,05,04,02,54,11.30
2013,05,04,02,55,11.30
2013,05,04,02,56,11.30
2013,05,04,02,57,11.30
2013,05,04,02,58,11.40
2013,05,04,02,59,11.40
2013,05,04,03,00,11.40
2013,05,04,03,01,11.40
2013,05,04,03,02,11.40
2013,05,04,03,03,11.40
2013,05,04,03,04,11.40
2013,05,04,03,05,11.40
2013,05,04,03,06,11.40
2013,05,04,03,07,11.40
2013,05,04,03,08,11.40
2013,05,04,03,09,11.40
2013,05,04,03,10,11.40
2013,05,04,03,11,11.40
2013,05,04,03,12,11.40
2013,05,04,03,13,11.40
2013,05,04,03,14,11.40
2013,05,04,03,15,11.40
2013,05,04,03,16,11.40
2013,05,04,03,17,11.40
2013,05,04,03,18,11.40
2013,05,04,03,19,11.40
2013,05,04,03,20,11.40
2013,05,04,03,21,11.40
2013,05,04,03,22,11.40
2013,05,04,03,23,11.40
2013,05,04,03,24,11.40
2013,05,04,03,25,11.40
2013,05,04,03,26,11.30
2013,05,04,03,27,11.30
2013,05,04,03,28,11.30
2013,05,04,03,29,11.40
2013,05,04,03,30,11.40
2013,05,04,03,31,11.40
2013,05,04,03,32,11.40
2013,05,04,03,33,11.40
2013,05,04,03,34,11.40
2013,05,04,03,35,11.40
2013,05,04,03,36,11.40
2013,05,04,03,37,11.40
2013,05,04,03,38,11.40
2013,05,04,03,39,11.40
2013,05,04,03,40,11.40
2013,05,04,03,41,11.40
2013,05,04,03,42,11.40
2013,05,04,03,43,11.30
2013,05,04,03,44,11.30
2013,05,04,03,45,11.30
2013,05,04,03,46,11.30
2013,05,04,03,47,11.30
2013,05,04,03,48,11.20
2013,05,04,03,49,11.20
2013,05,04,03,50,11.20
2013,05,04,03,51,11.20
2013,05,04,03,52,11.20
2013,05,04,03,53,11.20
2013,05,04,03,54,11.20
2013,05,04,03,55,11.20
2013,05,04,03,56,11.20
2013,05,04,03,57,11.20
2013,05,04,03,58,11.30
2013,05,04,03,59,11.30
2013,05,04,04,00,11.30
2013,05,04,04,01,11.40
2013,05,04,04,02,11.40
2013,05,04,04,03,11.40
2013,05,04,04,04,11.40
2013,05,04,04,05,11.40
2013,05,04,04,06,11.40
2013,05,04,04,07,11.30
2013,05,04,04,08,11.30
2013,05,04,04,09,11.30
2013,05,04,04,10,11.30
2013,05,04,04,11,11.30
2013,05,04,04,12,11.30
2013,05,04,04,13,11.30
2013,05,04,04,14,11.30
2013,05,04,04,15,11.30
2013,05,04,04,16,11.30
2013,05,04,04,17,11.20
2013,05,04,04,18,11.20
2013,05,04,04,19,11.20
2013,05,04,04,20,11.10
2013,05,04,04,21,11.10
2013,05,04,04,22,11.10
2013,05,04,04,23,11.10
2013,05,04,04,24,11.00
2013,05,04,04,25,10.90
2013,05,04,04,26,10.90
2013,05,04,04,27,10.90
2013,05,04,04,28,10.80
2013,05,04,04,29,10.80
2013,05,04,04,30,10.70
2013,05,04,04,31,10.70
2013,05,04,04,32,10.70
2013,05,04,04,33,10.70
2013,05,04,04,34,10.70
2013,05,04,04,35,10.70
2013,05,04,04,36,10.60
2013,05,04,04,37,10.60
2013,05,04,04,38,10.60
2013,05,04,04,39,10.60
2013,05,04,04,40,10.60
2013,05,04,04,41,10.60
2013,05,04,04,42,10.60
2013,05,04,04,43,10.60
2013,05,04,04,44,10.60
2013,05,04,04,45,10.60
2013,05,04,04,46,10.60
2013,05,04,04,47,10.60
2013,05,04,04,48,10.60
2013,05,04,04,49,10.60
2013,05,04,04,50,10.60
2013,05,04,04,51,10.60
2013,05,04,04,52,10.60
2013,05,04,04,53,10.60
2013,05,04,04,54,10.60
2013,05,04,04,55,10.60
2013,05,04,04,56,10.60
2013,05,04,04,57,10.60
2013,05,04,04,58,10.50
2013,05,04,04,59,10.40
2013,05,04,05,00,10.40
2013,05,04,05,01,10.40
2013,05,04,05,02,10.40
2013,05,04,05,03,10.40
2013,05,04,05,04,10.40
2013,05,04,05,05,10.40
2013,05,04,05,06,10.40
2013,05,04,05,07,10.40
2013,05,04,05,08,10.30
2013,05,04,05,09,10.30
2013,05,04,05,10,10.30
2013,05,04,05,11,10.30
2013,05,04,05,12,10.30
2013,05,04,05,13,10.30
2013,05,04,05,14,10.30
2013,05,04,05,15,10.30
2013,05,04,05,16,10.20
2013,05,04,05,17,10.20
2013,05,04,05,18,10.20
2013,05,04,05,19,10.30
2013,05,04,05,20,10.30
2013,05,04,05,21,10.30
2013,05,04,05,22,10.30
2013,05,04,05,23,10.30
2013,05,04,05,24,10.30
2013,05,04,05,25,10.30
2013,05,04,05,26,10.20
2013,05,04,05,27,10.20
2013,05,04,05,28,10.20
2013,05,04,05,29,10.20
2013,05,04,05,30,10.20
2013,05,04,05,31,10.20
2013,05,04,05,32,10.20
2013,05,04,05,33,10.20
2013,05,04,05,34,10.20
2013,05,04,05,35,10.20
2013,05,04,05,36,10.30
2013,05,04,05,37,10.30
2013,05,04,05,38,10.30
2013,05,04,05,39,10.30
2013,05,04,05,40,10.40
2013,05,04,05,41,10.40
2013,05,04,05,42,10.50
2013,05,04,05,43,10.60
2013,05,04,05,44,10.60
2013,05,04,05,45,10.70
2013,05,04,05,46,10.70
2013,05,04,05,47,10.60
2013,05,04,05,48,10.60
2013,05,04,05,49,10.50
2013,05,04,05,50,10.40
2013,05,04,05,51,10.40
2013,05,04,05,52,10.40
2013,05,04,05,53,10.40
2013,05,04,05,54,10.40
2013,05,04,05,55,10.40
2013,05,04,05,56,10.40
2013,05,04,05,57,10.40
2013,05,04,05,58,10.40
2013,05,04,05,59,10.40
2013,05,04,06,00,10.40
2013,05,04,06,01,10.40
2013,05,04,06,02,10.40
2013,05,04,06,03,10.40
2013,05,04,06,04,10.40
2013,05,04,06,05,10.40
2013,05,04,06,06,10.40
2013,05,04,06,07,10.40
2013,05,04,06,08,10.40
2013,05,04,06,09,10.40
2013,05,04,06,10,10.40
2013,05,04,06,11,10.50
2013,05,04,06,12,10.60
2013,05,04,06,13,10.60
2013,05,04,06,14,10.70
2013,05,04,06,15,10.80
2013,05,04,06,16,10.80
2013,05,04,06,17,10.90
2013,05,04,06,18,10.90
2013,05,04,06,19,10.90
2013,05,04,06,20,10.90
2013,05,04,06,21,10.90
2013,05,04,06,22,10.90
2013,05,04,06,23,10.90
2013,05,04,06,24,10.90
2013,05,04,06,25,10.90
2013,05,04,06,26,10.90
2013,05,04,06,27,10.90
2013,05,04,06,28,10.90
2013,05,04,06,29,10.90
2013,05,04,06,30,10.90
2013,05,04,06,31,10.90
2013,05,04,06,32,11.00
2013,05,04,06,33,11.10
2013,05,04,06,34,11.10
2013,05,04,06,35,11.20
2013,05,04,06,36,11.20
2013,05,04,06,37,11.20
2013,05,04,06,38,11.30
2013,05,04,06,39,11.30
2013,05,04,06,40,11.30
2013,05,04,06,41,11.30
2013,05,04,06,42,11.40
2013,05,04,06,43,11.40
2013,05,04,06,44,11.40
2013,05,04,06,45,11.40
2013,05,04,06,46,11.40
2013,05,04,06,47,11.50
2013,05,04,06,48,11.60
2013,05,04,06,49,11.60
2013,05,04,06,50,11.60
2013,05,04,06,51,11.60
2013,05,04,06,52,11.70
2013,05,04,06,53,11.80
2013,05,04,06,54,11.80
2013,05,04,06,55,11.90
2013,05,04,06,56,12.00
2013,05,04,06,57,12.10
2013,05,04,06,58,12.20
2013,05,04,06,59,12.30
2013,05,04,07,00,12.40
2013,05,04,07,01,12.50
2013,05,04,07,02,12.60
2013,05,04,07,03,12.60
2013,05,04,07,04,12.70
2013,05,04,07,05,12.80
2013,05,04,07,06,12.80
2013,05,04,07,07,12.90
2013,05,04,07,08,12.90
2013,05,04,07,09,13.00
2013,05,04,07,10,13.00
2013,05,04,07,11,13.00
2013,05,04,07,12,13.10
2013,05,04,07,13,13.10
2013,05,04,07,14,13.10
2013,05,04,07,15,13.20
2013,05,04,07,16,13.20
2013,05,04,07,17,13.30
2013,05,04,07,18,13.30
2013,05,04,07,19,13.30
2013,05,04,07,20,13.40
2013,05,04,07,21,13.50
2013,05,04,07,22,13.50
2013,05,04,07,23,13.50
2013,05,04,07,24,13.50
2013,05,04,07,25,13.40
2013,05,04,07,26,13.30
2013,05,04,07,27,13.30
2013,05,04,07,28,13.40
2013,05,04,07,29,13.40
2013,05,04,07,30,13.50
2013,05,04,07,31,13.50
2013,05,04,07,32,13.60
2013,05,04,07,33,13.60
2013,05,04,07,34,13.70
2013,05,04,07,35,13.70
2013,05,04,07,36,13.70
2013,05,04,07,37,13.70
2013,05,04,07,38,13.60
2013,05,04,07,39,13.70
2013,05,04,07,40,13.70
2013,05,04,07,41,13.70
2013,05,04,07,42,13.70
2013,05,04,07,43,13.70
2013,05,04,07,44,13.80
2013,05,04,07,45,13.80
2013,05,04,07,46,13.80
2013,05,04,07,47,13.80
2013,05,04,07,48,13.90
2013,05,04,07,49,13.90
2013,05,04,07,50,13.80
2013,05,04,07,51,13.80
2013,05,04,07,52,13.70
2013,05,04,07,53,13.70
2013,05,04,07,54,13.80
2013,05,04,07,55,13.70
2013,05,04,07,56,13.70
2013,05,04,07,57,13.80
2013,05,04,07,58,13.80
2013,05,04,07,59,13.80
2013,05,04,08,00,13.80
2013,05,04,08,01,13.80
2013,05,04,08,02,13.80
2013,05,04,08,03,13.80
2013,05,04,08,04,13.90
2013,05,04,08,05,13.90
2013,05,04,08,06,13.90
2013,05,04,08,07,14.00
2013,05,04,08,08,14.00
2013,05,04,08,09,14.00
2013,05,04,08,10,14.00
2013,05,04,08,11,14.00
2013,05,04,08,12,14.00
2013,05,04,08,13,14.00
2013,05,04,08,14,14.00
2013,05,04,08,15,14.00
2013,05,04,08,16,14.00
2013,05,04,08,17,14.00
2013,05,04,08,18,14.10
2013,05,04,08,19,14.10
2013,05,04,08,20,14.20
2013,05,04,08,21,14.20
2013,05,04,08,22,14.20
2013,05,04,08,23,14.10
2013,05,04,08,24,14.10
2013,05,04,08,25,14.20
2013,05,04,08,26,14.10
2013,05,04,08,27,14.10
2013,05,04,08,28,14.00
2013,05,04,08,29,14.00
2013,05,04,08,30,14.10
2013,05,04,08,31,14.20
2013,05,04,08,32,14.20
2013,05,04,08,33,14.20
2013,05,04,08,34,14.20
2013,05,04,08,35,14.20
2013,05,04,08,36,14.20
2013,05,04,08,37,14.20
2013,05,04,08,38,14.30
2013,05,04,08,39,14.30
2013,05,04,08,40,14.40
2013,05,04,08,41,14.40
2013,05,04,08,42,14.40
2013,05,04,08,43,14.30
2013,05,04,08,44,14.30
2013,05,04,08,45,14.20
2013,05,04,08,46,14.20
2013,05,04,08,47,14.10
2013,05,04,08,48,14.10
2013,05,04,08,49,14.10
2013,05,04,08,50,14.20
2013,05,04,08,51,14.20
2013,05,04,08,52,14.20
2013,05,04,08,53,14.20
2013,05,04,08,54,14.10
2013,05,04,08,55,14.00
2013,05,04,08,56,14.00
2013,05,04,08,57,13.80
2013,05,04,08,58,13.70
2013,05,04,08,59,13.70
2013,05,04,09,00,13.70
2013,05,04,09,01,13.70
2013,05,04,09,02,13.70
2013,05,04,09,03,13.70
2013,05,04,09,04,13.70
2013,05,04,09,05,13.70
2013,05,04,09,06,13.70
2013,05,04,09,07,13.70
2013,05,04,09,08,13.80
2013,05,04,09,09,13.90
2013,05,04,09,10,14.00
2013,05,04,09,11,14.00
2013,05,04,09,12,14.00
2013,05,04,09,13,14.00
2013,05,04,09,14,13.90
2013,05,04,09,15,13.90
2013,05,04,09,16,14.00
2013,05,04,09,17,13.90
2013,05,04,09,18,14.00
2013,05,04,09,19,13.90
2013,05,04,09,20,13.80
2013,05,04,09,21,13.70
2013,05,04,09,22,13.70
2013,05,04,09,23,13.70
2013,05,04,09,24,13.70
2013,05,04,09,25,13.70
2013,05,04,09,26,13.70
2013,05,04,09,27,13.90
2013,05,04,09,28,14.00
2013,05,04,09,29,14.20
2013,05,04,09,30,14.30
2013,05,04,09,31,14.40
2013,05,04,09,32,14.40
2013,05,04,09,33,14.50
2013,05,04,09,34,14.50
2013,05,04,09,35,14.60
2013,05,04,09,36,14.70
2013,05,04,09,37,14.80
2013,05,04,09,38,14.90
2013,05,04,09,39,14.90
2013,05,04,09,40,14.90
2013,05,04,09,41,15.00
2013,05,04,09,42,15.10
2013,05,04,09,43,15.10
2013,05,04,09,44,15.10
2013,05,04,09,45,15.20
2013,05,04,09,46,15.30
2013,05,04,09,47,15.30
2013,05,04,09,48,15.40
2013,05,04,09,49,15.50
2013,05,04,09,50,15.60
2013,05,04,09,51,15.60
2013,05,04,09,52,15.70
2013,05,04,09,53,15.80
2013,05,04,09,54,15.80
2013,05,04,09,55,15.70
2013,05,04,09,56,15.60
2013,05,04,09,57,15.50
2013,05,04,09,58,15.30
2013,05,04,09,59,15.30
2013,05,04,10,00,15.30
2013,05,04,10,01,15.30
2013,05,04,10,02,15.30
2013,05,04,10,03,15.20
2013,05,04,10,04,15.20
2013,05,04,10,05,15.30
2013,05,04,10,06,15.30
2013,05,04,10,07,15.40
2013,05,04,10,08,15.40
2013,05,04,10,09,15.40
2013,05,04,10,10,15.40
2013,05,04,10,11,15.40
2013,05,04,10,12,15.40
2013,05,04,10,13,15.40
2013,05,04,10,14,15.40
2013,05,04,10,15,15.30
2013,05,04,10,16,15.20
2013,05,04,10,17,15.20
2013,05,04,10,18,15.20
2013,05,04,10,19,15.10
2013,05,04,10,20,15.10
2013,05,04,10,21,15.00
2013,05,04,10,22,14.90
2013,05,04,10,23,14.80
2013,05,04,10,24,14.70
2013,05,04,10,25,14.60
2013,05,04,10,26,14.60
2013,05,04,10,27,14.70
2013,05,04,10,28,14.70
2013,05,04,10,29,14.80
2013,05,04,10,30,14.80
2013,05,04,10,31,14.80
2013,05,04,10,32,14.90
2013,05,04,10,33,14.90
2013,05,04,10,34,15.00
2013,05,04,10,35,15.00
2013,05,04,10,36,15.00
2013,05,04,10,37,15.10
2013,05,04,10,38,15.20
2013,05,04,10,39,15.30
2013,05,04,10,40,15.20
2013,05,04,10,41,15.10
2013,05,04,10,42,15.20
2013,05,04,10,43,15.20
2013,05,04,10,44,15.10
2013,05,04,10,45,15.10
2013,05,04,10,46,15.10
2013,05,04,10,47,15.10
2013,05,04,10,48,15.20
2013,05,04,10,49,15.10
2013,05,04,10,50,15.00
2013,05,04,10,51,15.00
2013,05,04,10,52,15.00
2013,05,04,10,53,15.00
2013,05,04,10,54,15.00
2013,05,04,10,55,15.00
2013,05,04,10,56,15.00
2013,05,04,10,57,15.00
2013,05,04,10,58,15.00
2013,05,04,10,59,15.00
2013,05,04,11,00,15.00
2013,05,04,11,01,15.10
2013,05,04,11,02,15.00
2013,05,04,11,03,15.00
2013,05,04,11,04,15.00
2013,05,04,11,05,14.90
2013,05,04,11,06,14.80
2013,05,04,11,07,14.70
2013,05,04,11,08,14.60
2013,05,04,11,09,14.60
2013,05,04,11,10,14.70
2013,05,04,11,11,14.80
2013,05,04,11,12,14.80
2013,05,04,11,13,14.80
2013,05,04,11,14,14.80
2013,05,04,11,15,14.90
2013,05,04,11,16,14.90
2013,05,04,11,17,14.90
2013,05,04,11,18,14.90
2013,05,04,11,19,14.80
2013,05,04,11,20,14.70
2013,05,04,11,21,14.60
2013,05,04,11,22,14.50
2013,05,04,11,23,14.50
2013,05,04,11,24,14.70
2013,05,04,11,25,14.70
2013,05,04,11,26,14.80
2013,05,04,11,27,14.80
2013,05,04,11,28,14.80
2013,05,04,11,29,14.80
2013,05,04,11,30,14.80
2013,05,04,11,31,14.80
2013,05,04,11,32,14.80
2013,05,04,11,33,14.90
2013,05,04,11,34,14.90
2013,05,04,11,35,14.80
2013,05,04,11,36,14.80
2013,05,04,11,37,15.00
2013,05,04,11,38,15.00
2013,05,04,11,39,15.00
2013,05,04,11,40,15.00
2013,05,04,11,41,15.10
2013,05,04,11,42,15.30
2013,05,04,11,43,15.30
2013,05,04,11,44,15.30
2013,05,04,11,45,15.30
2013,05,04,11,46,15.40
2013,05,04,11,47,15.40
2013,05,04,11,48,15.50
2013,05,04,11,49,15.60
2013,05,04,11,50,15.80
2013,05,04,11,51,15.90
2013,05,04,11,52,16.00
2013,05,04,11,53,16.10
2013,05,04,11,54,16.10
2013,05,04,11,55,16.10
2013,05,04,11,56,16.30
2013,05,04,11,57,16.50
2013,05,04,11,58,16.80
2013,05,04,11,59,17.00
2013,05,04,12,00,17.10
2013,05,04,12,01,17.30
2013,05,04,12,02,17.40
2013,05,04,12,03,17.60
2013,05,04,12,04,17.70
2013,05,04,12,05,17.70
2013,05,04,12,06,17.80
2013,05,04,12,07,17.70
2013,05,04,12,08,17.70
2013,05,04,12,09,17.70
2013,05,04,12,10,17.70
2013,05,04,12,11,17.60
2013,05,04,12,12,17.60
2013,05,04,12,13,17.70
2013,05,04,12,14,17.70
2013,05,04,12,15,17.80
2013,05,04,12,16,17.90
2013,05,04,12,17,17.90
2013,05,04,12,18,17.90
2013,05,04,12,19,17.90
2013,05,04,12,20,17.90
2013,05,04,12,21,17.90
2013,05,04,12,22,17.90
2013,05,04,12,23,17.90
2013,05,04,12,24,17.80
2013,05,04,12,25,17.80
2013,05,04,12,26,17.80
2013,05,04,12,27,17.90
2013,05,04,12,28,17.90
2013,05,04,12,29,18.10
2013,05,04,12,30,18.20
2013,05,04,12,31,18.30
2013,05,04,12,32,18.30
2013,05,04,12,33,18.30
2013,05,04,12,34,18.20
2013,05,04,12,35,18.30
2013,05,04,12,36,18.40
2013,05,04,12,37,18.40
2013,05,04,12,38,18.30
2013,05,04,12,39,18.20
2013,05,04,12,40,18.30
2013,05,04,12,41,18.40
2013,05,04,12,42,18.50
2013,05,04,12,43,18.50
2013,05,04,12,44,18.60
2013,05,04,12,45,18.60
2013,05,04,12,46,18.70
2013,05,04,12,47,18.70
2013,05,04,12,48,18.70
2013,05,04,12,49,18.70
2013,05,04,12,50,18.80
2013,05,04,12,51,18.80
2013,05,04,12,52,18.80
2013,05,04,12,53,18.80
2013,05,04,12,54,18.90
2013,05,04,12,55,18.90
2013,05,04,12,56,18.90
2013,05,04,12,57,18.90
2013,05,04,12,58,19.00
2013,05,04,12,59,19.10
2013,05,04,13,00,19.20
2013,05,04,13,01,19.20
2013,05,04,13,02,19.30
2013,05,04,13,03,19.30
2013,05,04,13,04,19.40
2013,05,04,13,05,19.40
2013,05,04,13,06,19.40
2013,05,04,13,07,19.40
2013,05,04,13,08,19.40
2013,05,04,13,09,19.50
2013,05,04,13,10,19.50
2013,05,04,13,11,19.60
2013,05,04,13,12,19.70
2013,05,04,13,13,19.90
2013,05,04,13,14,19.90
2013,05,04,13,15,20.10
2013,05,04,13,16,20.20
2013,05,04,13,17,20.30
2013,05,04,13,18,20.40
2013,05,04,13,19,20.50
2013,05,04,13,20,20.50
2013,05,04,13,21,20.60
2013,05,04,13,22,20.60
2013,05,04,13,23,20.60
2013,05,04,13,24,20.70
2013,05,04,13,25,20.70
2013,05,04,13,26,20.80
2013,05,04,13,27,20.80
2013,05,04,13,28,20.80
2013,05,04,13,29,20.60
2013,05,04,13,30,20.50
2013,05,04,13,31,20.40
2013,05,04,13,32,20.40
2013,05,04,13,33,20.30
2013,05,04,13,34,20.40
2013,05,04,13,35,20.30
2013,05,04,13,36,20.10
2013,05,04,13,37,20.10
2013,05,04,13,38,20.10
2013,05,04,13,39,20.10
2013,05,04,13,40,20.10
2013,05,04,13,41,20.00
2013,05,04,13,42,19.90
2013,05,04,13,43,19.90
2013,05,04,13,44,19.80
2013,05,04,13,45,19.80
2013,05,04,13,46,19.80
2013,05,04,13,47,19.70
2013,05,04,13,48,19.60
2013,05,04,13,49,19.50
2013,05,04,13,50,19.50
2013,05,04,13,51,19.60
2013,05,04,13,52,19.60
2013,05,04,13,53,19.70
2013,05,04,13,54,19.70
2013,05,04,13,55,19.70
2013,05,04,13,56,19.80
2013,05,04,13,57,19.80
2013,05,04,13,58,19.80
2013,05,04,13,59,19.90
2013,05,04,14,00,19.90
2013,05,04,14,01,19.80
2013,05,04,14,02,19.80
2013,05,04,14,03,19.90
2013,05,04,14,04,19.90
2013,05,04,14,05,19.90
2013,05,04,14,06,19.90
2013,05,04,14,07,19.90
2013,05,04,14,08,19.90
2013,05,04,14,09,20.10
2013,05,04,14,10,20.10
2013,05,04,14,11,20.20
2013,05,04,14,12,20.20
2013,05,04,14,13,20.20
2013,05,04,14,14,20.20
2013,05,04,14,15,20.20
2013,05,04,14,16,20.20
2013,05,04,14,17,20.20
2013,05,04,14,18,20.30
2013,05,04,14,19,20.30
2013,05,04,14,20,20.20
2013,05,04,14,21,20.10
2013,05,04,14,22,20.00
2013,05,04,14,23,19.90
2013,05,04,14,24,19.90
2013,05,04,14,25,19.90
2013,05,04,14,26,19.80
2013,05,04,14,27,19.70
2013,05,04,14,28,19.60
2013,05,04,14,29,19.40
2013,05,04,14,30,19.30
2013,05,04,14,31,19.30
2013,05,04,14,32,19.20
2013,05,04,14,33,19.30
2013,05,04,14,34,19.20
2013,05,04,14,35,19.20
2013,05,04,14,36,19.40
2013,05,04,14,37,19.50
2013,05,04,14,38,19.50
2013,05,04,14,39,19.50
2013,05,04,14,40,19.50
2013,05,04,14,41,19.60
2013,05,04,14,42,19.60
2013,05,04,14,43,19.60
2013,05,04,14,44,19.50
2013,05,04,14,45,19.50
2013,05,04,14,46,19.50
2013,05,04,14,47,19.40
2013,05,04,14,48,19.40
2013,05,04,14,49,19.50
2013,05,04,14,50,19.60
2013,05,04,14,51,19.70
2013,05,04,14,52,19.70
2013,05,04,14,53,19.80
2013,05,04,14,54,19.90
2013,05,04,14,55,19.90
2013,05,04,14,56,20.10
2013,05,04,14,57,20.10
2013,05,04,14,58,20.20
2013,05,04,14,59,20.20
2013,05,04,15,00,20.20
2013,05,04,15,01,20.20
2013,05,04,15,02,20.20
2013,05,04,15,03,20.10
2013,05,04,15,04,20.00
2013,05,04,15,05,19.90
2013,05,04,15,06,19.90
2013,05,04,15,07,19.90
2013,05,04,15,08,19.90
2013,05,04,15,09,19.90
2013,05,04,15,10,19.90
2013,05,04,15,11,19.90
2013,05,04,15,12,19.90
2013,05,04,15,13,19.90
2013,05,04,15,14,19.90
2013,05,04,15,15,19.90
2013,05,04,15,16,19.90
2013,05,04,15,17,19.90
2013,05,04,15,18,19.90
2013,05,04,15,19,20.10
2013,05,04,15,20,20.10
2013,05,04,15,21,20.10
2013,05,04,15,22,20.10
2013,05,04,15,23,20.10
2013,05,04,15,24,20.10
2013,05,04,15,25,20.20
2013,05,04,15,26,20.10
2013,05,04,15,27,20.10
2013,05,04,15,28,20.20
2013,05,04,15,29,20.20
2013,05,04,15,30,20.30
2013,05,04,15,31,20.30
2013,05,04,15,32,20.40
2013,05,04,15,33,20.40
2013,05,04,15,34,20.50
2013,05,04,15,35,20.50
2013,05,04,15,36,20.50
2013,05,04,15,37,20.40
2013,05,04,15,38,20.30
2013,05,04,15,39,20.30
2013,05,04,15,40,20.30
2013,05,04,15,41,20.20
2013,05,04,15,42,20.10
2013,05,04,15,43,19.90
2013,05,04,15,44,19.90
2013,05,04,15,45,19.90
2013,05,04,15,46,19.90
2013,05,04,15,47,19.90
2013,05,04,15,48,20.00
2013,05,04,15,49,20.10
2013,05,04,15,50,20.20
2013,05,04,15,51,20.30
2013,05,04,15,52,20.50
2013,05,04,15,53,20.60
2013,05,04,15,54,20.70
2013,05,04,15,55,20.70
2013,05,04,15,56,20.80
2013,05,04,15,57,20.80
2013,05,04,15,58,20.90
2013,05,04,15,59,21.00
2013,05,04,16,00,20.90
2013,05,04,16,01,21.00
2013,05,04,16,02,20.90
2013,05,04,16,03,20.90
2013,05,04,16,04,20.90
2013,05,04,16,05,21.00
2013,05,04,16,06,21.00
2013,05,04,16,07,21.00
2013,05,04,16,08,20.90
2013,05,04,16,09,20.90
2013,05,04,16,10,20.90
2013,05,04,16,11,20.80
2013,05,04,16,12,20.80
2013,05,04,16,13,20.80
2013,05,04,16,14,20.80
2013,05,04,16,15,20.80
2013,05,04,16,16,20.80
2013,05,04,16,17,20.80
2013,05,04,16,18,20.90
2013,05,04,16,19,20.90
2013,05,04,16,20,20.90
2013,05,04,16,21,20.90
2013,05,04,16,22,20.90
2013,05,04,16,23,20.80
2013,05,04,16,24,20.80
2013,05,04,16,25,20.70
2013,05,04,16,26,20.70
2013,05,04,16,27,20.60
2013,05,04,16,28,20.60
2013,05,04,16,29,20.60
2013,05,04,16,30,20.60
2013,05,04,16,31,20.50
2013,05,04,16,32,20.50
2013,05,04,16,33,20.50
2013,05,04,16,34,20.50
2013,05,04,16,35,20.60
2013,05,04,16,36,20.60
2013,05,04,16,37,20.70
2013,05,04,16,38,20.80
2013,05,04,16,39,20.90
2013,05,04,16,40,20.90
2013,05,04,16,41,20.90
2013,05,04,16,42,20.90
2013,05,04,16,43,20.70
2013,05,04,16,44,20.50
2013,05,04,16,45,20.40
2013,05,04,16,46,20.30
2013,05,04,16,47,20.30
2013,05,04,16,48,20.30
2013,05,04,16,49,20.30
2013,05,04,16,50,20.30
2013,05,04,16,51,20.30
2013,05,04,16,52,20.20
2013,05,04,16,53,20.20
2013,05,04,16,54,20.20
2013,05,04,16,55,20.20
2013,05,04,16,56,20.10
2013,05,04,16,57,20.10
2013,05,04,16,58,20.10
2013,05,04,16,59,20.10
2013,05,04,17,00,20.10
2013,05,04,17,01,20.00
2013,05,04,17,02,19.90
2013,05,04,17,03,19.90
2013,05,04,17,04,19.80
2013,05,04,17,05,19.70
2013,05,04,17,06,19.60
2013,05,04,17,07,19.50
2013,05,04,17,08,19.50
2013,05,04,17,09,19.40
2013,05,04,17,10,19.50
2013,05,04,17,11,19.50
2013,05,04,17,12,19.50
2013,05,04,17,13,19.50
2013,05,04,17,14,19.50
2013,05,04,17,15,19.50
2013,05,04,17,16,19.60
2013,05,04,17,17,19.60
2013,05,04,17,18,19.60
2013,05,04,17,19,19.70